Погода в Новополеве

Россия / Орловская область     52°31′54″N   36°20′24″E
темп.,
°C
ветер,
м/с
пор.,
м/с
влажн.,
%
обл.,
%
осадки,
мм/ч
давл.,
гПа
погр.,
м
28 ноября, вс
вс2800:00+4ю5129898 0.0 1003319
03:00+5ююз51298100 0.0 1004339
06:00+5юз489579 0.0 1005326
09:00+2юз37952 0.0 1006157
12:00+5юз357985 0.0 1008245
15:00+5ю238156 0.0 1008103
18:00+4ююв3796100 0.0 1009137
21:00+3юв51197100 0.0 1008269
29 ноября, пн
пн2900:00+4юв51294100 0.0 1007292
03:00+4юв51295100 0.0 1006276
06:00+4вюв3997100 0.0 1003199
09:00+5вюв4899100 0.8 1001207
12:00+5юв3899100 0.2 998233
15:00+6ююв3999100 0.3 996277
18:00+7юв41198100 0.1 993339
21:00+7вюв61298100 3.7 986483
30 ноября, вт
вт3000:00+7ю2499100 8.7 980102
03:00+8ююз61396100 11.9 977603
06:00+7з61197100 2.1 975514
09:000зюз142296100 7.1 9831115
12:00+1зюз132084100 2.9 9881141
15:00+1юз11178193 3.0 9901233
18:000юз101685100 0.1 9911088
21:00−1зюз9158296 0.6 9911197
1 декабря, ср
ср100:00−1зюз8148799 0.1 9921117
03:00−2зюз81394100 0.3 9931024
06:00−2з81382100 0.4 9941092
09:00−3з81285100 0.4 996988
12:00−2з71083100 0.1 9981043
15:00−2з6108072 0.1 9981008
18:00−3зюз410917 0.0 1000571
21:00−3з49905 0.0 1001506
2 декабря, чт
чт200:00−4зюз48915 0.0 1002367
03:00−4ююз4894100 0.0 1003297
06:00−2ю61387100 0.0 1001486
09:000ююз71598100 0.4 1000747
12:00+1юз81698100 1.0 1000668
15:00+2юз71598100 1.1 1001545
18:00+1юз7158989 0.1 1004510
21:00+1юз61590100 0.1 1005455